(144) Vibilia
ephemeris date magn radius delta ra dec elong phase
Today5 Jul 202514.33.260 AU3.629 AU11h06m+10°14'61.0°15.8°
Opposition5 May 202612.33.110 AU2.103 AU14h56m-12°56'176.2°1.2°
(144) Vibilia - 2025-07-05
astro.vanbuitenen.nl


 
-1 year
-1 month
-1 day
Now
+1 day
+1 month
+1 year

The interactive orbit chart above shows the body's path through the solar system and its position at the given date. Green and blue lines are shown perpendicular to the ecliptic plane: Green if the path is above the ecliptic plane, blue if it is below. (Left-click and drag to rotate the view; Right-click and drag to move the view; Use scroll wheel to zoom in our out.)

The orbital elements of Vibilia are:

            e (Eccentricity)                : 0.2357376
            a (Semimajor axis)              : 2.6531771
            i (Inclination)                 : 4.81608
            Ω (Longitude of ascending node) : 76.16224
            ω (Argument of perihelion)      : 294.44807
            M (Mean anomaly)                : 148.91831
            Epoch                           : 2025 May 05

            L (Longitude of perihelion)     : 10.68675
            B (Latitude of perihelion)      : -4.38337
            P (Orbital period in years)     : 4.32            
        

The light curve chart below shows the estimated development of the minor planet's magnitude.


The all-sky chart below shows the path of the minor planet over the same period as the light curve. The current position is marked yellow.





The following chart shows the path of the minor planet in the next few days. The field of view is optimized for (~10x50) binoculars and finderscopes. A more printer-friendly version of the same chart can be found below.




Ephemerides:
Date       Time       RA (2000)    DEC (2000)    delta   radius  elong  phase   PA    magn
2025-07-05 00:00 UT   11 06 55.5   +10 14 39     3.629    3.260   61.0   15.8   111   14.3 
2025-07-05 19:00 UT   11 07 40.4   +10 09 07     3.640    3.261   60.5   15.7   110   14.3 
2025-07-06 00:00 UT   11 07 52.3   +10 07 39     3.642    3.261   60.3   15.7   110   14.3 
2025-07-07 00:00 UT   11 08 49.5   +10 00 38     3.655    3.261   59.6   15.6   110   14.3 
2025-07-08 00:00 UT   11 09 47.1   +09 53 34     3.668    3.262   58.9   15.5   110   14.3 
2025-07-09 00:00 UT   11 10 45.1   +09 46 28     3.680    3.262   58.3   15.4   110   14.3 
2025-07-10 00:00 UT   11 11 43.5   +09 39 19     3.693    3.263   57.6   15.2   110   14.3 
2025-07-11 00:00 UT   11 12 42.3   +09 32 08     3.705    3.263   56.9   15.1   110   14.3 
2025-07-12 00:00 UT   11 13 41.5   +09 24 55     3.718    3.264   56.2   15.0   110   14.3 
2025-07-13 00:00 UT   11 14 41.0   +09 17 40     3.730    3.264   55.5   14.9   110   14.3 
2025-07-14 00:00 UT   11 15 40.9   +09 10 23     3.742    3.264   54.9   14.8   110   14.3 
2025-07-15 00:00 UT   11 16 41.2   +09 03 04     3.754    3.265   54.2   14.6   110   14.3 
2025-07-16 00:00 UT   11 17 41.9   +08 55 42     3.766    3.265   53.5   14.5   110   14.3 
2025-07-17 00:00 UT   11 18 42.8   +08 48 19     3.778    3.266   52.8   14.4   110   14.3 
2025-07-18 00:00 UT   11 19 44.2   +08 40 53     3.789    3.266   52.2   14.2   110   14.3 
2025-07-19 00:00 UT   11 20 45.9   +08 33 26     3.801    3.266   51.5   14.1   110   14.3 
2025-07-20 00:00 UT   11 21 47.9   +08 25 56     3.812    3.267   50.8   14.0   110   14.3 
2025-07-21 00:00 UT   11 22 50.2   +08 18 25     3.824    3.267   50.2   13.8   110   14.3 
2025-07-22 00:00 UT   11 23 52.9   +08 10 52     3.835    3.268   49.5   13.7   110   14.3 
2025-07-23 00:00 UT   11 24 55.9   +08 03 17     3.846    3.268   48.8   13.5   110   14.3 
2025-07-24 00:00 UT   11 25 59.2   +07 55 40     3.857    3.268   48.2   13.4   110   14.3 
2025-07-25 00:00 UT   11 27 02.8   +07 48 01     3.868    3.269   47.5   13.2   110   14.4 
2025-07-26 00:00 UT   11 28 06.8   +07 40 20     3.879    3.269   46.8   13.1   110   14.4 
2025-07-27 00:00 UT   11 29 11.0   +07 32 38     3.889    3.269   46.2   13.0   110   14.4 
2025-07-28 00:00 UT   11 30 15.5   +07 24 54     3.900    3.270   45.5   12.8   109   14.4 
2025-07-29 00:00 UT   11 31 20.3   +07 17 09     3.910    3.270   44.9   12.7   109   14.4 
2025-07-30 00:00 UT   11 32 25.3   +07 09 22     3.920    3.270   44.2   12.5   109   14.4 
2025-07-31 00:00 UT   11 33 30.7   +07 01 34     3.931    3.271   43.6   12.3   109   14.4 
2025-08-01 00:00 UT   11 34 36.2   +06 53 44     3.941    3.271   42.9   12.2   109   14.4 
2025-08-02 00:00 UT   11 35 42.1   +06 45 52     3.950    3.271   42.3   12.0   109   14.4 
2025-08-03 00:00 UT   11 36 48.2   +06 37 60     3.960    3.272   41.6   11.9   109   14.4 


    Terminology:
            
    delta:  distance between minor planet and earth in AU
    radius: distance between minor planet and sun in AU
    magn:   magnitude (brightness) estimate    
    ra:     right ascension in hours (24h = 360deg)
    dec:    declination in degrees
    elong:  elongation in degrees (angle sun-earth-minor planet)    
    phase:  phase angle in degrees (angle sun-minor planet-earth)        
    AU:     Astronomical Unit (mean distance between earth and sun: 149597870.7 km
    

Orbital elements provided by the MPC (Minor Planet Center).
Calculations by a modified version of AAPlus, a C# implementation of the AA+ project by PJ Naughter from the algorithms presented in the book "Astronomical Algorithms" by Jean Meeus.
NGC2000 dso catalog and star labels from VizieR as provided by the Strasbourg astronomical Data Center.
Tycho2 catalog from the ESO archive.